SCP
0 0 0 0 0 0 0 0 1 1 2 1 1 0 0 0 0 0 0 0 0 0 0 0 0 0 0 0 0 0 0 0 0 0 0 0 0 0 0 0 0 0 0
0 0 0 0 0 0 0 1 1 1 2 1 1 0 0 0 0 0 0 0 0 0 0 0 0 0 0 0 0 0 0 0 0 0 0 0 0 0 0 0 0 0 0
0 0 0 0 0 0 1 2 1 1 1 1 0 0 0 0 0 0 0 0 0 0 0 0 0 0 0 0 0 0 0 0 0 0 0 0 0 0 0 0 0 0 0
0 0 0 0 0 0 1 1 1 1 1 0 0 0 0 0 0 0 0 0 0 0 0 0 0 0 0 0 0 0 0 0 0 0 -0 0 0 0 0 0 0 0 0
0 0 0 0 0 0 1 1 1 1 0 0 0 0 0 0 0 0 0 0 0 0 0 0 0 0 0 0 0 0 0 0 0 0 -0 -0 -0 0 0 0 0 0 0
-0 0 0 0 0 0 1 1 0 0 0 0 0 0 0 0 0 0 0 0 0 0 0 0 0 0 0 0 0 -0 -0 -0 -0 -0 -0 -0 -0 0 0 0 0 0 0
0 0 0 0 0 0 0 0 0 0 0 0 0 0 0 0 0 0 0 0 0 0 0 0 0 0 0 0 -0 -0 0 0 -0 -0 -0 -0 -0 0 0 0 0 0 0
0 0 -0 0 0 0 0 0 0 0 0 0 0 0 0 0 0 0 0 0 0 0 0 0 0 -0 0 0 0 -0 0 0 0 0 0 -0 -0 0 0 0 0 0 0
0 -0 0 0 0 0 0 0 0 0 0 0 0 0 0 0 0 0 0 0 0 0 0 0 -0 -0 0 0 0 0 0 0 0 0 -0 0 0 -0 -0 0 0 0 0
0 0 0 0 0 0 0 0 0 0 0 0 0 0 0 0 0 0 0 0 0 0 0 -0 -0 -0 -0 0 -0 0 0 0 0 0 -0 0 0 0 0 -0 0 0 0
-0 0 0 0 0 0 0 0 0 0 0 0 0 0 0 0 0 0 0 0 0 0 0 -0 -0 -0 -0 -0 0 0 0 0 -0 0 -0 -0 -0 -0 -0 -0 -0 0 0
-0 0 0 0 0 0 0 0 0 0 0 0 0 0 0 0 0 0 0 0 0 0 -0 -0 -0 -0 -0 -0 -0 -0 0 0 0 0 0 -0 -0 -0 0 -0 -0 0 0
-0 0 -0 -0 0 0 0 0 0 0 0 0 0 0 0 0 0 0 0 0 0 -0 -0 0 0 0 -0 -0 0 0 0 0 0 0 0 0 -0 -0 -0 -0 0 0 0
-0 0 -0 0 0 0 0 0 0 0 0 0 0 0 0 0 0 0 0 0 0 -0 -0 -0 0 0 -0 -0 -0 -0 -0 -0 0 0 0 0 -0 0 0 0 0 0 0
0 -0 -0 0 0 0 0 0 -0 0 0 0 0 0 0 0 0 0 0 0 0 -0 -0 0 0 0 0 0 0 0 0 0 -0 -0 0 0 0 -0 -0 -0 0 0 0
0 -0 -0 -0 0 -0 -0 -0 -0 0 -0 0 0 0 -0 0 0 0 0 0 0 -0 -0 0 0 0 0 0 -0 -0 -0 -0 -0 0 0 0 0 -0 -0 -0 -0 0 0
0 0 -0 0 0 -0 -0 -0 -0 -0 -0 -0 -0 -0 -0 -0 0 0 0 0 -0 -0 -0 0 0 0 0 0 0 -0 0 0 0 0 0 0 0 0 0 0 0 0 0
0 0 0 0 0 -0 -0 -0 -0 -0 -0 -0 -0 -0 -0 0 0 0 0 0 0 0 -0 -0 -0 -0 0 0 0 0 -0 -0 -0 -0 -0 0 0 0 0 0 0 0 0
0 0 0 0 0 -0 0 -0 -0 -0 -0 -0 -0 -0 0 -0 0 0 0 0 0 0 0 -0 -0 -0 0 0 0 0 0 -0 -0 -0 -0 -0 -0 0 -0 -0 0 0 0
0 0 0 0 0 -0 -0 -0 -0 -0 -0 -0 -0 -0 -0 -0 0 0 0 0 0 0 -0 -0 -0 -0 0 0 0 0 0 0 -0 -0 0 -0 -0 -0 -0 0 0 0 0
0 0 0 0 -0 -0 -0 -0 -0 -0 -0 -0 -0 -0 -0 -0 0 0 0 0 0 0 -0 -0 -0 0 0 0 0 0 0 0 0 0 0 0 -0 -0 -0 -0 0 0 0
0 0 0 0 0 -0 -0 -0 -0 -0 -0 -0 -0 -0 -0 -0 0 0 0 0 0 0 0 0 -0 -0 0 0 0 0 0 -0 0 0 0 -0 0 -0 -0 0 0 0 0
0 0 0 0 0 0 -0 -0 -0 -0 -0 -0 -0 -0 -0 -0 -0 0 0 0 0 0 0 0 0 -0 -0 0 0 -0 -0 -0 -0 0 0 0 0 0 -0 -0 0 0 0
0 0 0 0 0 0 0 0 -0 -0 -0 -0 -0 -0 -0 -0 0 0 0 0 0 0 0 0 0 0 0 0 -0 -0 -0 0 -0 0 0 -0 -0 -0 -0 -0 -0 0 0
0 0 0 0 0 0 0 0 0 -0 -0 -0 -0 -0 -0 -0 0 0 0 0 0 0 0 0 0 0 0 0 0 0 0 0 0 0 0 0 0 0 0 0 0 0 0
0 0 0 0 0 0 0 0 0 -0 -0 -0 -0 -0 0 0 0 0 0 -0 -0 0 0 0 0 0 0 0 0 0 0 0 0 0 0 0 0 0 0 0 0 0 0
Wind_Speed_500mb
87 76 66 59 53 56 50 43 46 49 44 47 61 59 56 50 47 45 45 38 30 29 30 30 34 37 39 34 35 36 36 34 33 32 35 35 36 37 37 37 39 39 39
86 75 60 54 46 45 43 42 49 46 47 51 62 70 64 49 43 45 42 36 32 32 31 32 33 40 38 33 30 28 26 27 28 28 26 16 27 35 35 35 40 40 38
63 62 58 54 51 46 41 49 49 46 44 47 49 48 45 38 44 38 34 39 35 32 32 35 36 34 31 30 23 20 19 22 24 28 18 10 14 9 25 31 34 37 42
72 67 54 58 53 43 44 43 42 40 42 41 40 40 38 45 42 33 29 36 40 38 34 34 30 24 25 20 16 18 20 24 25 28 33 26 5 2 6 21 26 33 37
68 65 59 53 48 46 50 40 35 39 38 35 30 37 36 31 25 30 30 26 35 35 32 30 28 25 21 16 19 20 20 23 25 29 26 36 21 12 11 6 32 34 30
75 65 44 41 52 50 44 36 36 40 37 36 40 35 37 38 29 28 24 24 24 27 30 28 26 23 18 16 16 15 12 13 14 17 18 26 31 24 29 22 18 34 31
59 50 40 57 59 54 44 38 45 48 44 42 44 35 37 32 26 28 25 23 23 28 28 27 24 22 15 14 13 12 12 11 14 16 21 24 23 12 20 27 17 28 24
32 39 53 68 65 56 46 48 52 53 49 47 40 32 33 28 26 24 25 21 21 20 19 19 22 19 14 13 14 12 9 10 10 19 25 29 20 16 16 20 23 31 26
37 59 70 69 61 53 48 52 61 55 50 45 35 29 30 29 23 17 17 18 20 14 13 15 16 16 14 14 13 8 10 11 14 17 21 19 23 21 22 18 28 37 33
56 65 69 64 55 46 49 59 55 52 47 38 27 20 19 16 11 13 17 14 14 10 10 13 15 17 19 15 9 11 9 8 11 16 21 24 21 22 22 21 33 36 40
69 73 67 60 53 51 59 55 48 47 42 30 20 22 15 10 9 11 11 12 12 12 10 12 15 20 17 11 6 9 7 5 8 12 18 22 23 23 18 18 37 36 41
82 77 70 65 61 61 60 53 47 41 31 23 29 16 16 9 10 11 13 10 13 14 17 20 18 13 11 4 6 9 6 8 7 11 6 13 28 26 26 23 36 36 38
69 73 70 67 65 64 58 51 43 37 33 27 29 20 12 8 12 12 11 12 17 22 21 21 16 15 12 10 8 7 6 7 9 12 11 12 18 25 27 25 34 36 40
80 79 76 70 67 63 57 51 42 36 35 34 28 19 6 4 15 12 11 13 21 25 20 18 13 12 10 9 8 8 8 12 16 15 14 17 19 24 27 26 29 34 41
70 77 81 75 71 67 58 51 43 37 37 36 28 20 10 6 14 13 12 14 23 26 22 20 17 16 12 11 8 10 10 13 11 12 16 17 21 22 23 22 23 33 45
71 74 79 75 72 67 59 56 48 43 39 40 30 22 14 14 11 11 15 15 20 28 26 26 18 14 10 8 6 10 14 13 10 12 17 18 18 21 24 23 24 25 45
76 82 83 77 73 65 56 58 53 48 42 42 32 22 17 14 9 7 17 18 19 27 27 24 18 17 16 11 9 13 11 13 13 16 14 13 14 17 15 19 15 24 47
69 77 80 75 66 61 54 53 54 52 43 41 34 24 21 21 15 7 15 19 22 26 26 22 20 20 17 16 16 19 15 13 12 13 7 11 18 16 17 21 22 28 38
81 78 76 72 67 63 57 56 57 56 47 42 36 32 28 21 21 11 14 22 25 27 25 23 20 18 22 20 14 21 21 16 12 11 11 9 15 19 21 33 36 32 47
79 78 74 72 66 65 63 59 62 61 47 45 40 34 27 24 25 13 17 24 24 24 26 25 21 20 25 20 21 20 22 18 15 16 16 14 11 18 25 43 47 46 41
80 78 80 76 72 71 69 63 61 59 40 46 41 41 35 29 26 17 20 25 24 26 27 21 23 28 25 20 15 19 16 14 17 17 19 24 21 21 25 50 49 51 51
72 81 81 78 78 74 71 65 61 48 41 49 45 43 38 36 26 15 22 22 24 27 27 23 28 27 21 14 10 14 10 17 16 26 26 29 31 25 31 48 52 52 52
49 70 79 79 79 75 70 64 51 50 49 50 50 40 40 37 26 17 22 22 29 33 28 29 31 26 22 19 15 17 24 22 25 31 30 38 34 36 37 45 55 54 52
34 35 59 71 76 75 70 52 51 53 54 54 55 47 43 40 28 17 20 16 28 36 37 35 31 27 24 21 24 28 36 32 32 33 39 37 38 43 44 49 51 55 43
43 28 22 52 68 73 73 59 54 56 58 57 58 53 48 41 31 22 24 15 16 22 27 33 27 24 21 24 20 35 42 38 34 38 39 40 44 44 48 53 55 54 50
45 37 18 29 64 72 73 66 59 61 62 62 65 59 54 47 35 29 31 28 18 15 14 14 14 17 17 24 30 41 39 38 35 37 40 40 44 48 52 54 53 54 55
Wind_Direction_500mb
268 279 277 242 251 251 255 265 271 258 249 229 218 205 195 195 196 205 221 235 232 228 249 266 276 271 282 281 277 270 264 257 255 244 249 251 250 248 241 241 238 232 226
282 276 237 239 243 255 252 263 255 240 235 230 216 215 213 213 230 232 235 233 236 249 258 268 279 276 274 275 274 273 262 252 235 239 237 254 255 249 243 240 234 226 219
281 276 251 242 243 248 255 247 227 227 228 212 204 202 211 220 226 223 227 232 236 246 258 266 268 271 268 273 271 268 263 254 240 229 220 219 238 259 231 233 226 216 216
274 274 257 244 240 236 230 220 219 215 204 202 199 202 208 195 196 203 217 225 232 241 250 266 275 277 273 266 259 248 248 244 238 229 226 225 176 330 221 220 212 209 213
270 276 258 243 223 214 209 207 206 195 191 188 192 183 184 191 200 207 222 221 226 240 260 268 270 265 259 260 262 252 251 246 238 237 239 221 219 233 252 214 219 216 220
278 279 269 218 205 199 197 191 187 182 178 177 179 181 188 194 193 202 211 227 232 253 268 269 257 244 249 259 258 240 229 210 218 228 223 213 220 249 233 240 247 221 217
262 260 243 196 191 189 184 178 178 170 169 169 178 182 199 204 205 211 221 233 257 271 268 246 233 229 245 253 234 216 205 224 230 234 218 216 237 261 225 237 235 191 191
253 227 198 188 186 182 178 174 173 169 168 174 181 188 196 204 206 216 235 247 259 259 249 233 214 221 231 225 208 200 232 225 222 214 216 222 234 236 233 231 217 173 179
230 194 186 182 178 173 174 172 165 168 175 180 181 190 205 216 215 217 241 257 254 239 230 203 203 210 206 193 184 206 209 232 229 222 215 213 229 237 220 205 198 189 169
179 179 176 175 169 169 166 165 164 168 179 182 189 189 179 191 216 253 255 231 218 207 200 196 198 192 182 175 179 188 212 238 233 211 218 219 218 208 217 213 194 195 185
175 173 173 172 165 164 163 163 160 166 169 170 170 155 154 188 240 235 203 191 200 183 168 173 172 172 174 164 177 214 227 223 210 223 227 222 211 214 200 202 185 186 193
168 169 171 165 163 160 163 160 159 162 158 161 161 157 185 203 228 201 188 190 188 166 146 135 143 151 163 185 216 214 204 222 250 202 210 211 211 205 205 205 188 192 194
158 165 166 166 164 162 163 160 159 159 162 165 159 178 181 247 188 176 170 182 176 158 149 155 163 173 170 207 227 219 190 159 153 152 141 160 171 186 192 183 178 186 188
164 165 166 166 167 167 166 163 161 163 168 160 165 167 183 168 187 176 168 176 176 169 158 148 155 178 184 210 199 177 157 161 162 142 126 127 131 132 155 163 175 179 181
158 163 167 169 170 169 170 169 167 167 171 170 173 172 172 165 175 179 168 169 179 176 165 156 159 172 194 179 174 174 154 142 161 158 146 134 148 146 162 163 170 182 179
161 165 169 171 173 170 172 173 174 175 173 175 177 184 179 150 132 170 177 172 175 176 175 171 174 171 189 199 195 186 173 169 178 160 156 178 188 191 189 207 203 203 188
164 168 174 175 175 173 172 176 179 178 180 185 182 189 169 171 157 134 183 185 179 178 181 178 191 193 206 216 192 167 165 180 177 160 158 178 164 180 186 161 170 201 192
165 171 176 178 177 175 174 174 181 183 185 194 189 188 175 183 194 191 189 185 172 183 177 189 203 209 219 192 186 161 159 160 151 142 130 140 144 144 151 143 151 173 178
176 179 181 180 178 177 176 176 184 185 187 191 185 188 182 192 196 206 193 186 181 187 188 192 204 202 195 186 198 165 164 167 162 159 134 130 142 140 153 147 140 156 164
181 181 184 184 180 180 179 180 186 187 190 190 185 190 192 208 197 200 188 187 195 193 190 189 199 199 193 178 166 172 176 180 183 176 174 172 156 134 153 150 142 138 156
187 185 185 185 185 182 183 184 185 190 192 190 196 192 201 207 196 194 184 191 196 192 185 190 175 178 177 174 186 200 200 194 172 178 177 163 164 141 143 156 150 139 145
188 188 187 188 187 185 186 186 188 189 186 192 195 195 203 196 194 203 180 188 191 179 184 185 173 169 171 191 186 169 159 133 138 133 137 147 163 178 152 156 154 147 150
173 184 188 189 188 188 190 187 187 184 182 192 194 200 202 197 199 204 189 183 187 185 187 187 181 181 185 190 183 156 144 137 138 135 134 138 133 150 145 148 163 161 155
86 167 187 188 189 192 195 195 181 184 188 195 196 199 202 195 196 197 195 191 191 193 189 191 182 182 186 180 168 157 155 146 145 136 134 131 134 137 144 152 163 176 180
66 119 133 200 199 200 201 195 184 186 192 199 198 199 199 201 195 197 197 176 176 179 181 190 194 190 179 170 172 166 159 154 149 141 141 139 144 144 151 157 166 170 178
50 65 164 225 214 208 206 198 193 189 194 201 199 201 199 199 203 205 195 186 175 152 174 188 195 182 170 157 147 155 163 157 158 153 147 148 153 152 154 161 167 173 182
Wind_Speed_850mb
87 76 66 59 53 56 50 43 46 49 44 47 61 59 56 50 47 45 45 38 30 29 30 30 34 37 39 34 35 36 36 34 33 32 35 35 36 37 37 37 39 39 39
86 75 60 54 46 45 43 42 49 46 47 51 62 70 64 49 43 45 42 36 32 32 31 32 33 40 38 33 30 28 26 27 28 28 26 16 27 35 35 35 40 40 38
63 62 58 54 51 46 41 49 49 46 44 47 49 48 45 38 44 38 34 39 35 32 32 35 36 34 31 30 23 20 19 22 24 28 18 10 14 9 25 31 34 37 42
72 67 54 58 53 43 44 43 42 40 42 41 40 40 38 45 42 33 29 36 40 38 34 34 30 24 25 20 16 18 20 24 25 28 33 26 5 2 6 21 26 33 37
68 65 59 53 48 46 50 40 35 39 38 35 30 37 36 31 25 30 30 26 35 35 32 30 28 25 21 16 19 20 20 23 25 29 26 36 21 12 11 6 32 34 30
75 65 44 41 52 50 44 36 36 40 37 36 40 35 37 38 29 28 24 24 24 27 30 28 26 23 18 16 16 15 12 13 14 17 18 26 31 24 29 22 18 34 31
59 50 40 57 59 54 44 38 45 48 44 42 44 35 37 32 26 28 25 23 23 28 28 27 24 22 15 14 13 12 12 11 14 16 21 24 23 12 20 27 17 28 24
32 39 53 68 65 56 46 48 52 53 49 47 40 32 33 28 26 24 25 21 21 20 19 19 22 19 14 13 14 12 9 10 10 19 25 29 20 16 16 20 23 31 26
37 59 70 69 61 53 48 52 61 55 50 45 35 29 30 29 23 17 17 18 20 14 13 15 16 16 14 14 13 8 10 11 14 17 21 19 23 21 22 18 28 37 33
56 65 69 64 55 46 49 59 55 52 47 38 27 20 19 16 11 13 17 14 14 10 10 13 15 17 19 15 9 11 9 8 11 16 21 24 21 22 22 21 33 36 40
69 73 67 60 53 51 59 55 48 47 42 30 20 22 15 10 9 11 11 12 12 12 10 12 15 20 17 11 6 9 7 5 8 12 18 22 23 23 18 18 37 36 41
82 77 70 65 61 61 60 53 47 41 31 23 29 16 16 9 10 11 13 10 13 14 17 20 18 13 11 4 6 9 6 8 7 11 6 13 28 26 26 23 36 36 38
69 73 70 67 65 64 58 51 43 37 33 27 29 20 12 8 12 12 11 12 17 22 21 21 16 15 12 10 8 7 6 7 9 12 11 12 18 25 27 25 34 36 40
80 79 76 70 67 63 57 51 42 36 35 34 28 19 6 4 15 12 11 13 21 25 20 18 13 12 10 9 8 8 8 12 16 15 14 17 19 24 27 26 29 34 41
70 77 81 75 71 67 58 51 43 37 37 36 28 20 10 6 14 13 12 14 23 26 22 20 17 16 12 11 8 10 10 13 11 12 16 17 21 22 23 22 23 33 45
71 74 79 75 72 67 59 56 48 43 39 40 30 22 14 14 11 11 15 15 20 28 26 26 18 14 10 8 6 10 14 13 10 12 17 18 18 21 24 23 24 25 45
76 82 83 77 73 65 56 58 53 48 42 42 32 22 17 14 9 7 17 18 19 27 27 24 18 17 16 11 9 13 11 13 13 16 14 13 14 17 15 19 15 24 47
69 77 80 75 66 61 54 53 54 52 43 41 34 24 21 21 15 7 15 19 22 26 26 22 20 20 17 16 16 19 15 13 12 13 7 11 18 16 17 21 22 28 38
81 78 76 72 67 63 57 56 57 56 47 42 36 32 28 21 21 11 14 22 25 27 25 23 20 18 22 20 14 21 21 16 12 11 11 9 15 19 21 33 36 32 47
79 78 74 72 66 65 63 59 62 61 47 45 40 34 27 24 25 13 17 24 24 24 26 25 21 20 25 20 21 20 22 18 15 16 16 14 11 18 25 43 47 46 41
80 78 80 76 72 71 69 63 61 59 40 46 41 41 35 29 26 17 20 25 24 26 27 21 23 28 25 20 15 19 16 14 17 17 19 24 21 21 25 50 49 51 51
72 81 81 78 78 74 71 65 61 48 41 49 45 43 38 36 26 15 22 22 24 27 27 23 28 27 21 14 10 14 10 17 16 26 26 29 31 25 31 48 52 52 52
49 70 79 79 79 75 70 64 51 50 49 50 50 40 40 37 26 17 22 22 29 33 28 29 31 26 22 19 15 17 24 22 25 31 30 38 34 36 37 45 55 54 52
34 35 59 71 76 75 70 52 51 53 54 54 55 47 43 40 28 17 20 16 28 36 37 35 31 27 24 21 24 28 36 32 32 33 39 37 38 43 44 49 51 55 43
43 28 22 52 68 73 73 59 54 56 58 57 58 53 48 41 31 22 24 15 16 22 27 33 27 24 21 24 20 35 42 38 34 38 39 40 44 44 48 53 55 54 50
45 37 18 29 64 72 73 66 59 61 62 62 65 59 54 47 35 29 31 28 18 15 14 14 14 17 17 24 30 41 39 38 35 37 40 40 44 48 52 54 53 54 55
Wind_Direction_850mb
268 279 277 242 251 251 255 265 271 258 249 229 218 205 195 195 196 205 221 235 232 228 249 266 276 271 282 281 277 270 264 257 255 244 249 251 250 248 241 241 238 232 226
282 276 237 239 243 255 252 263 255 240 235 230 216 215 213 213 230 232 235 233 236 249 258 268 279 276 274 275 274 273 262 252 235 239 237 254 255 249 243 240 234 226 219
281 276 251 242 243 248 255 247 227 227 228 212 204 202 211 220 226 223 227 232 236 246 258 266 268 271 268 273 271 268 263 254 240 229 220 219 238 259 231 233 226 216 216
274 274 257 244 240 236 230 220 219 215 204 202 199 202 208 195 196 203 217 225 232 241 250 266 275 277 273 266 259 248 248 244 238 229 226 225 176 330 221 220 212 209 213
270 276 258 243 223 214 209 207 206 195 191 188 192 183 184 191 200 207 222 221 226 240 260 268 270 265 259 260 262 252 251 246 238 237 239 221 219 233 252 214 219 216 220
278 279 269 218 205 199 197 191 187 182 178 177 179 181 188 194 193 202 211 227 232 253 268 269 257 244 249 259 258 240 229 210 218 228 223 213 220 249 233 240 247 221 217
262 260 243 196 191 189 184 178 178 170 169 169 178 182 199 204 205 211 221 233 257 271 268 246 233 229 245 253 234 216 205 224 230 234 218 216 237 261 225 237 235 191 191
253 227 198 188 186 182 178 174 173 169 168 174 181 188 196 204 206 216 235 247 259 259 249 233 214 221 231 225 208 200 232 225 222 214 216 222 234 236 233 231 217 173 179
230 194 186 182 178 173 174 172 165 168 175 180 181 190 205 216 215 217 241 257 254 239 230 203 203 210 206 193 184 206 209 232 229 222 215 213 229 237 220 205 198 189 169
179 179 176 175 169 169 166 165 164 168 179 182 189 189 179 191 216 253 255 231 218 207 200 196 198 192 182 175 179 188 212 238 233 211 218 219 218 208 217 213 194 195 185
175 173 173 172 165 164 163 163 160 166 169 170 170 155 154 188 240 235 203 191 200 183 168 173 172 172 174 164 177 214 227 223 210 223 227 222 211 214 200 202 185 186 193
168 169 171 165 163 160 163 160 159 162 158 161 161 157 185 203 228 201 188 190 188 166 146 135 143 151 163 185 216 214 204 222 250 202 210 211 211 205 205 205 188 192 194
158 165 166 166 164 162 163 160 159 159 162 165 159 178 181 247 188 176 170 182 176 158 149 155 163 173 170 207 227 219 190 159 153 152 141 160 171 186 192 183 178 186 188
164 165 166 166 167 167 166 163 161 163 168 160 165 167 183 168 187 176 168 176 176 169 158 148 155 178 184 210 199 177 157 161 162 142 126 127 131 132 155 163 175 179 181
158 163 167 169 170 169 170 169 167 167 171 170 173 172 172 165 175 179 168 169 179 176 165 156 159 172 194 179 174 174 154 142 161 158 146 134 148 146 162 163 170 182 179
161 165 169 171 173 170 172 173 174 175 173 175 177 184 179 150 132 170 177 172 175 176 175 171 174 171 189 199 195 186 173 169 178 160 156 178 188 191 189 207 203 203 188
164 168 174 175 175 173 172 176 179 178 180 185 182 189 169 171 157 134 183 185 179 178 181 178 191 193 206 216 192 167 165 180 177 160 158 178 164 180 186 161 170 201 192
165 171 176 178 177 175 174 174 181 183 185 194 189 188 175 183 194 191 189 185 172 183 177 189 203 209 219 192 186 161 159 160 151 142 130 140 144 144 151 143 151 173 178
176 179 181 180 178 177 176 176 184 185 187 191 185 188 182 192 196 206 193 186 181 187 188 192 204 202 195 186 198 165 164 167 162 159 134 130 142 140 153 147 140 156 164
181 181 184 184 180 180 179 180 186 187 190 190 185 190 192 208 197 200 188 187 195 193 190 189 199 199 193 178 166 172 176 180 183 176 174 172 156 134 153 150 142 138 156
187 185 185 185 185 182 183 184 185 190 192 190 196 192 201 207 196 194 184 191 196 192 185 190 175 178 177 174 186 200 200 194 172 178 177 163 164 141 143 156 150 139 145
188 188 187 188 187 185 186 186 188 189 186 192 195 195 203 196 194 203 180 188 191 179 184 185 173 169 171 191 186 169 159 133 138 133 137 147 163 178 152 156 154 147 150
173 184 188 189 188 188 190 187 187 184 182 192 194 200 202 197 199 204 189 183 187 185 187 187 181 181 185 190 183 156 144 137 138 135 134 138 133 150 145 148 163 161 155
86 167 187 188 189 192 195 195 181 184 188 195 196 199 202 195 196 197 195 191 191 193 189 191 182 182 186 180 168 157 155 146 145 136 134 131 134 137 144 152 163 176 180
66 119 133 200 199 200 201 195 184 186 192 199 198 199 199 201 195 197 197 176 176 179 181 190 194 190 179 170 172 166 159 154 149 141 141 139 144 144 151 157 166 170 178
50 65 164 225 214 208 206 198 193 189 194 201 199 201 199 199 203 205 195 186 175 152 174 188 195 182 170 157 147 155 163 157 158 153 147 148 153 152 154 161 167 173 182